Photometre #851[NE_1.6_Dp] Lerwick_MO AOT

File : 20210607_851.hum

07/06/2021,04:25:04,TEMP=10.9,BA=5.64,STAT.h
07/06/2021,04:36:36,TEMP=10.9,BA=5.64,STAT.h
07/06/2021,04:36:37,TEMP=10.9,BA=5.64,STAT.h
07/06/2021,04:37:58,TEMP=10.9,BA=5.64,STAT.h
07/06/2021,04:37:59,TEMP=10.9,BA=5.64,STAT.h
07/06/2021,04:46:02,TEMP=10.9,BA=5.64,STAT.h
07/06/2021,04:46:03,TEMP=10.9,BA=5.64,STAT.h
07/06/2021,04:55:34,TEMP=10.9,BA=5.64,STAT.h
07/06/2021,04:55:35,TEMP=10.9,BA=5.64,STAT.h
07/06/2021,05:07:05,TEMP=10.9,BA=5.64,STAT.h
07/06/2021,05:07:11,TEMP=10.9,BA=5.64,STAT.h
07/06/2021,05:21:16,TEMP=10.9,BA=5.64,STAT.h
07/06/2021,05:27:55,TEMP=10.9,BA=5.64,STAT.h
07/06/2021,05:28:01,TEMP=10.9,BA=5.64,STAT.h
07/06/2021,05:35:17,TEMP=10.9,BA=5.64,STAT.h
07/06/2021,05:35:18,TEMP=10.9,BA=5.64,STAT.h
07/06/2021,05:43:29,TEMP=10.9,BA=5.64,STAT.h
07/06/2021,05:55:21,TEMP=11.8,BA=5.64,STAT.A,ExtBa=12.20
07/06/2021,06:08:57,TEMP=12.6,BA=5.64,STAT.C,ExtBa=12.20
07/06/2021,06:34:47,TEMP=15.0,BA=5.64,STAT.A,ExtBa=12.00
07/06/2021,06:48:21,TEMP=14.3,BA=5.64,STAT.A,ExtBa=12.10
07/06/2021,07:02:14,TEMP=14.4,BA=5.64,STAT.A,ExtBa=12.10
07/06/2021,07:15:47,TEMP=15.0,BA=5.64,STAT.A,ExtBa=12.10
07/06/2021,07:29:20,TEMP=15.3,BA=5.64,STAT.B,ExtBa=12.10
07/06/2021,08:18:09,TEMP=15.6,BA=5.64,STAT.B,ExtBa=12.20
07/06/2021,08:33:51,TEMP=14.9,BA=5.64,STAT.D,ExtBa=12.20
07/06/2021,08:48:51,TEMP=14.6,BA=5.60,STAT.D,ExtBa=12.20
07/06/2021,09:03:53,TEMP=15.0,BA=5.60,STAT.F,ExtBa=12.20
07/06/2021,09:27:47,TEMP=15.9,BA=5.60,STAT.D,ExtBa=12.00
07/06/2021,09:41:24,TEMP=15.3,BA=5.60,STAT.D,ExtBa=12.10
07/06/2021,09:54:57,TEMP=15.6,BA=5.60,STAT.D,ExtBa=12.10
07/06/2021,10:08:40,TEMP=15.8,BA=5.60,STAT.F,ExtBa=12.10
07/06/2021,10:45:47,TEMP=16.0,BA=5.60,STAT.D,ExtBa=12.10
07/06/2021,11:03:39,TEMP=15.7,BA=5.56,STAT.D,ExtBa=12.10
07/06/2021,11:21:59,TEMP=15.6,BA=5.56,STAT.D,ExtBa=12.10
07/06/2021,11:39:58,TEMP=15.6,BA=5.56,STAT.F,ExtBa=12.10
07/06/2021,11:57:26,TEMP=16.0,BA=5.56,STAT.D,ExtBa=12.00
07/06/2021,12:11:32,TEMP=15.2,BA=5.56,STAT.D,ExtBa=12.10
07/06/2021,12:24:55,TEMP=15.0,BA=5.56,STAT.D,ExtBa=12.10
07/06/2021,12:38:24,TEMP=14.7,BA=5.56,STAT.F,ExtBa=12.10
07/06/2021,12:54:47,TEMP=15.8,BA=5.56,STAT.D,ExtBa=12.00
07/06/2021,13:08:17,TEMP=14.9,BA=5.56,STAT.D,ExtBa=12.10
07/06/2021,13:21:41,TEMP=14.6,BA=5.56,STAT.D,ExtBa=12.10
07/06/2021,13:35:07,TEMP=15.2,BA=5.56,STAT.F,ExtBa=12.10
07/06/2021,14:03:03,TEMP=16.4,BA=5.56,STAT.D,ExtBa=11.90
07/06/2021,14:16:28,TEMP=15.1,BA=5.56,STAT.D,ExtBa=12.00
07/06/2021,14:29:54,TEMP=15.3,BA=5.56,STAT.D,ExtBa=12.10
07/06/2021,14:43:21,TEMP=14.7,BA=5.56,STAT.F,ExtBa=12.10
07/06/2021,14:45:19,TEMP=15.0,BA=5.56,STAT.D,ExtBa=12.00
07/06/2021,14:58:46,TEMP=14.2,BA=5.56,STAT.D,ExtBa=12.10
07/06/2021,15:16:53,TEMP=14.1,BA=5.56,STAT.D,ExtBa=12.10
07/06/2021,15:30:29,TEMP=13.8,BA=5.60,STAT.F,ExtBa=12.10
07/06/2021,15:40:33,TEMP=14.4,BA=5.56,STAT.b=19.0
07/06/2021,15:40:57,TEMP=14.5,BA=5.56,STAT.D,ExtBa=12.00
07/06/2021,15:54:26,TEMP=13.7,BA=5.60,STAT.D,ExtBa=12.00
07/06/2021,16:07:52,TEMP=13.7,BA=5.60,STAT.B,ExtBa=12.10
07/06/2021,16:39:16,TEMP=13.3,BA=5.64,STAT.B,ExtBa=12.10
07/06/2021,17:03:07,TEMP=12.8,BA=5.64,STAT.A,ExtBa=12.10
07/06/2021,17:22:30,TEMP=12.5,BA=5.64,STAT.A,ExtBa=12.10
07/06/2021,17:38:39,TEMP=12.4,BA=5.64,STAT.A,ExtBa=12.10
07/06/2021,17:52:24,TEMP=12.5,BA=5.64,STAT.A,ExtBa=12.10
07/06/2021,18:04:17,TEMP=12.4,BA=5.64,STAT.C,ExtBa=12.10
07/06/2021,18:14:40,TEMP=12.3,BA=5.64,STAT.A,ExtBa=12.10
07/06/2021,18:23:51,TEMP=12.2,BA=5.64,STAT.A,ExtBa=12.10
07/06/2021,18:32:03,TEMP=12.2,BA=5.64,STAT.A,ExtBa=12.10
07/06/2021,18:39:25,TEMP=12.2,BA=5.64,STAT.A,ExtBa=12.10
07/06/2021,18:46:04,TEMP=12.1,BA=5.60,STAT.B,ExtBa=12.10
07/06/2021,19:00:15,TEMP=12.0,BA=5.64,STAT.A,ExtBa=12.10
07/06/2021,19:11:47,TEMP=12.0,BA=5.64,STAT.A,ExtBa=12.10
07/06/2021,19:21:19,TEMP=12.0,BA=5.64,STAT.A,ExtBa=12.10
07/06/2021,19:29:23,TEMP=12.0,BA=5.64,STAT.A,ExtBa=12.10
07/06/2021,19:36:18,TEMP=11.9,BA=5.64,STAT.A,ExtBa=12.10
07/06/2021,19:42:17,TEMP=11.8,BA=5.64,STAT.A,ExtBa=12.10